Location: *
(47.8307°S, 178.3954°E)
Time: 22:49:47
(UTC+00:00)

Cosmos 1025 Rocket - Pass Details

Date: 12 August 2024
Orbit: 590 x 613 km, 82.5° (Epoch: 19 September)

Event Time Altitude Azimuth Distance (km) Brightness Sun altitude
Rises 17:50:45 0° 334° (NNW) 2,864 6.3 -14.2°
Reaches altitude 10° 17:53:04 10° 326° (NNW) 1,965 5.4 -13.8°
Maximum altitude 17:57:11 41° 255° (WSW) 890 3.4 -13.2°
Drops below altitude 10° 18:01:21 10° 184° (S) 1,978 5.5 -12.5°
Sets 18:03:41 0° 176° (S) 2,885 6.4 -12.1°
